Flag for Romania Weather past 2 weeks in Bucharest, Romania

Now
72 °F

Clear.


Feels Like: 72 °F
Forecast: 64 / 92 °F
Wind: 3 mph from West

Location: Bucharest / Imh

Current Time: Aug 31, 2015 at 4:26:44 AM

Latest Report: Aug 31, 2015 at 4:00 AM


Visibility: 10 mi

Pressure: 30.15 "Hg

Humidity: 78%

Dew point: 64 °F

Location of BucharestLocation

Historic Weather in Bucharest — Graph

°F

Bucharest temperature yesterday

Maximum temperature yesterday: 93 °F (at 5:00 PM)
Minimum temperature yesterday: 72 °F (at 3:30 AM)
Average temperature yesterday: 82 °F

Past Weeks' High & Low Weather Summary

 TemperatureHumidityPressure
High97 °F (Aug 16, 3:30 PM)100% (Aug 17, 11:00 PM)30.24 "Hg (Aug 17, 11:00 PM)
Low57 °F (Aug 21, 5:00 AM)25% (Aug 26, 4:30 PM)29.74 "Hg (Aug 16, 4:30 PM)
Average72 °F65%30.05 "Hg
* Reported Aug 16 3:00 AM — Aug 31 3:00 AM, Bucharest, Weather by CustomWeather, © 2015

Note: Actual official high and low records may vary slightly from our data, if they occured in-between our weather recording intervals... More about our weather records

Advertising

Bucharest weather history for previous 24 hours

 ConditionsComfort  
Time TempWeatherWind HumidityBarometerVisibility
3:00 AM
Mon, Aug 31
72 °FClear.2 mph78%30.15 "Hg10 mi
2:30 AM73 °FMild.No wind74%30.15 "HgN/A
2:00 AM73 °FClear.2 mph74%30.15 "Hg10 mi
1:30 AM75 °FClear.No wind69%30.15 "Hg10 mi
1:00 AM75 °FPassing clouds.3 mph69%30.15 "HgN/A
12:30 AM77 °FClear.No wind69%30.15 "Hg10 mi
12:00 AM77 °FClear.2 mph69%30.15 "Hg10 mi
11:30 PM
Sun, Aug 30
77 °FClear.2 mph69%30.15 "Hg10 mi
10:30 PM77 °FClear.No wind69%30.15 "Hg10 mi
10:00 PM81 °FClear.No wind62%30.15 "Hg10 mi
9:30 PM81 °FClear.No wind62%30.15 "Hg10 mi
9:00 PM84 °FClear.No wind51%30.15 "Hg10 mi
8:30 PM84 °FSunny.2 mph51%30.15 "Hg10 mi
8:00 PM86 °FSunny.2 mph49%30.15 "Hg10 mi
7:30 PM90 °FSunny.3 mph43%30.15 "Hg10 mi
7:00 PM91 °FSunny.2 mph36%30.15 "Hg10 mi
6:30 PM91 °FSunny.2 mph36%30.15 "Hg10 mi
6:00 PM93 °FSunny.2 mph34%30.18 "Hg10 mi
5:30 PM93 °FSunny.1 mph32%30.18 "Hg10 mi
5:00 PM93 °FSunny.1 mph34%30.18 "Hg10 mi
4:30 PM91 °FSunny.1 mph36%30.18 "Hg10 mi
4:00 PM91 °FPassing clouds.3 mph34%30.21 "HgN/A
3:30 PM91 °FSunny.5 mph36%30.21 "Hg10 mi
3:00 PM91 °FPassing clouds.7 mph36%30.21 "HgN/A
2:30 PM90 °FPassing clouds.7 mph41%30.24 "HgN/A
2:00 PM90 °FPassing clouds.8 mph41%30.24 "HgN/A
1:30 PM90 °FPassing clouds.8 mph41%30.24 "HgN/A
1:00 PM90 °FPassing clouds.9 mph41%30.24 "HgN/A
12:30 PM88 °FPassing clouds.9 mph46%30.24 "HgN/A
12:00 PM88 °FPassing clouds.10 mph43%30.24 "HgN/A
11:30 AM86 °FPassing clouds.10 mph46%30.24 "HgN/A
11:00 AM86 °FPassing clouds.14 mph46%30.24 "HgN/A
10:30 AM84 °FPassing clouds.13 mph48%30.24 "HgN/A
10:00 AM82 °FPassing clouds.12 mph51%30.24 "HgN/A
9:30 AM82 °FPassing clouds.12 mph55%30.24 "HgN/A
9:00 AM81 °FPassing clouds.8 mph54%30.24 "HgN/A
8:30 AM79 °FPassing clouds.9 mph58%30.24 "HgN/A
8:00 AM77 °FSunny.8 mph57%30.21 "Hg10 mi
7:00 AM73 °FPassing clouds.7 mph65%30.21 "HgN/A
6:30 AM72 °FClear.3 mph65%30.21 "Hg10 mi
6:00 AM73 °FPassing clouds.3 mph61%30.18 "HgN/A
5:30 AM72 °FPassing clouds.3 mph65%30.18 "HgN/A
5:00 AM72 °FClear.1 mph65%30.18 "Hg10 mi
4:30 AM73 °FClear.2 mph61%30.18 "Hg10 mi
4:00 AM72 °FClear.2 mph69%30.18 "Hg10 mi
Weather by CustomWeather, © 2015

See weather overviewHow to use our weather pages